Regional Weather Roundup
Issued by NWS

Home | Current Version | Previous Version | Graphics & Text | Print | Product List | Glossary On
Versions: 1 2 3 4 5 6 7 8 9 10 11 12 13 14 15 16 17 18 19 20 21 22 23 24 25 26 27 28 29 30 31 32 33 34 35 36 37 38 39 40 41 42 43 44 45 46 47 48 49 50
000
ASUS43 KLOT 180958
RWRIL

ILLINOIS REGIONAL WEATHER ROUNDUP
NATIONAL WEATHER SERVICE CHICAGO/ROMEOVILLE IL
500 AM CDT THU SEP 18 2014

NOTE: "FAIR" INDICATES FEW OR NO CLOUDS BELOW 12,000 FEET WITH NO
SIGNIFICANT WEATHER AND/OR OBSTRUCTIONS TO VISIBILITY.

* THESE STATIONS ARE NOT UNDER NWS QUALITY CONTROL. THEY ALSO MAY NOT
  REPORT WEATHER SUCH AS PRECIPITATION OR FOG.

ILZ001-002-007-009-015-016-024-181100-
NORTHWEST ILLINOIS

CITY           SKY/WX    TMP DP  RH WIND       PRES   REMARKS
MOLINE         CLEAR     47  45  93 CALM      30.04S FOG
$$

ILZ003-004-008-010-011-017-018-181100-
NORTH CENTRAL ILLINOIS

CITY           SKY/WX    TMP DP  RH WIND       PRES   REMARKS
ROCKFORD       NOT AVBL
$$

ILZ005-006-012>014-019>023-181100-
NORTHEAST ILLINOIS

CITY           SKY/WX    TMP DP  RH WIND       PRES   REMARKS
CHICAGO-OHARE  CLEAR     53  47  79 CALM      30.06R
CHICAGO-MIDWAY PTCLDY    53  49  86 W3        30.06R
AURORA         CLEAR     44  41  89 CALM      30.07R
WAUKEGAN       MOCLDY    52  50  93 N6        30.08R FOG
DUPAGE AIRPORT CLEAR     47  44  90 N3        30.06S
WHEELING       CLEAR     51  47  86 VRB3      30.09R
NORTHERLY ISL    N/A     57  47  69 CALM        N/A
$$

LMZ740>746-181100-
SOUTHERN LAKE MICHIGAN

STATION/POSITION SKY/WX   TEMP    WIND        PRES    VSBY  WAVE
                          AIR SEA DIR/SP/G                  HT/PER
                          (F)     (DEG/KT/KT) (MB)    (MI)  (FT/S)
SOUTHERN BUOY              62 65  300/ 10/ 12 1018.0R         0
WAUKEGAN HARBOR            54     360/ 10/ 13   N/A
HARRISON CRIB              58     290/  4/  4   N/A
BURNHAM HARBOR             56     250/  2/  3   N/A
CALUMET HARBOR             54     230/  2/  3 1016.7R
MICHIGAN CITY              51     110/  7/  8   N/A
MICHIGAN CITY 6N           58 64  160/  2/  2   N/A           0
ST. JOSEPH                 60 67   90/  8/  8   N/A           0
$$

ILZ025>027-034>036-040-047-049-050-058-095>099-181100-
WEST-CENTRAL ILLINOIS

CITY           SKY/WX    TMP DP  RH WIND       PRES   REMARKS
QUINCY         FOG       49  48  97 CALM      30.02R VSB 1
$$

ILZ028>032-037-038-041>044-048-051>054-059>061-181100-
CENTRAL ILLINOIS

CITY           SKY/WX    TMP DP  RH WIND       PRES   REMARKS
PEORIA         NOT AVBL
SPRINGFIELD    CLEAR     50  48  93 CALM      30.04R
TAYLORVILLE    NOT AVBL
$$

ILZ033-039-045-046-055>057-062-063-181100-
EAST-CENTRAL ILLINOIS

CITY           SKY/WX    TMP DP  RH WIND       PRES   REMARKS
$$

ILZ079-100>102-181100-
SOUTHWEST ILLINOIS

CITY           SKY/WX    TMP DP  RH WIND       PRES   REMARKS
CAHOKIA*       MOCLDY    61  57  87 NE3       30.00R
$$

ILZ064>066-069>071-074>076-080>082-084>086-088>090-092>094-181100-
SOUTH-CENTRAL ILLINOIS

CITY           SKY/WX    TMP DP  RH WIND       PRES   REMARKS
CARBONDALE     CLOUDY    61  56  83 NE5       29.98R
$$

ILZ067-068-072-073-078-083-087-091-181100-
SOUTHEAST ILLINOIS

CITY           SKY/WX    TMP DP  RH WIND       PRES   REMARKS
$$

ABBREVIATIONS USED IN REMARKS
   TC - TEMPERATURE IN CELSIUS
  WCI - WIND CHILL INDEX
   HX - HEAT INDEX
  VSB - VISIBILITY
$$



USA.gov is the U.S. government's official web portal to all federal, state and local government web resources and services.